Regional Weather Roundup
Issued by NWS Cleveland, OH

Home | Current Version | Previous Version | Graphics & Text | Print | Product List | Glossary On
Versions: 1 2 3 4 5 6 7 8 9 10 11 12 13 14 15 16 17 18 19 20 21 22 23 24 25 26 27 28 29 30 31 32 33 34 35 36 37 38 39 40 41 42 43 44 45 46 47 48 49 50
000
ASUS41 KCLE 221300
RWRCLE
OHIO REGIONAL WEATHER ROUNDUP
NATIONAL WEATHER SERVICE WILMINGTON, OH
900 AM EDT TUE AUG 22 2017

NOTE: "FAIR" INDICATES FEW OR NO CLOUDS BELOW 12,000 FEET WITH NO
SIGNIFICANT WEATHER AND/OR OBSTRUCTIONS TO VISIBILITY.

OHZ001>008-015>018-024>027-034-035-043-044-221400-
   NORTHWEST OHIO

CITY           SKY/WX    TMP DP  RH WIND       PRES   REMARKS
DEFIANCE       LGT RAIN  70  67  90 SW8       29.89F
FINDLAY        LGT RAIN  75  68  78 W12       29.90R
TOLEDO EXPRESS LGT RAIN  71  71 100 SW13      29.87S
TOLEDO EXEC    FAIR      73  71  93 SW14      29.88S
LIMA           FAIR      74  70  87 W10       29.92S
$$

OHZ009>014-019>023-028>033-038-089-221400-
   NORTHEAST OHIO

CITY           SKY/WX    TMP DP  RH WIND       PRES   REMARKS
CLE-HOPKINS    CLOUDY    80  69  69 SW13G20   29.91F
CLE-LAKEFRONT  FAIR      81  67  62 SW14G25   29.87F
CUY CO. ARPT   PTSUNNY   81  70  69 S13       29.90F
LORAIN-ELYRIA  FAIR      76  66  71 SW9       29.90F
ASHTABULA      FAIR      76  71  85 SW12G18   29.91F
AKRON-CANTON   PTSUNNY   79  67  66 SW15      29.95F
WOOSTER        NOT AVBL
MANSFIELD      PTSUNNY   76  68  76 S10       29.94S
YOUNGSTOWN     PTSUNNY   77  68  73 S10       29.94F
$$

OHZ042-051>053-060>062-070>072-077>081-221400-
  SOUTHWEST OHIO

CITY           SKY/WX    TMP DP  RH WIND       PRES   REMARKS
CINC-COVINGTON FAIR      78  71  79 SW12G18   29.98F
CINC-LUNKEN    FAIR      79  71  76 SW13      29.98S
HAMILTON       FAIR      80  72  76 SW10      29.97F
DAYTON         NOT AVBL
WRIGHT-PAT AFB NOT AVBL
DAYTON GENERAL PTSUNNY   77  69  76 SW10      29.96F
WILMINGTON     FAIR      77  71  82 SW15      29.98S
$$

OHZ036-037-039>041-045>050-054>059-063>069-073>076-082>088-221400-
  CENTRAL AND SOUTHEAST OHIO

CITY           SKY/WX    TMP DP  RH WIND       PRES   REMARKS
COLUMBUS       PTSUNNY   77  69  76 SW13      29.96F
OSU AIRPORT    FAIR      77  70  79 SW13      29.95S
BOLTON FIELD   SUNNY     75  70  83 SW10G21   29.97F
RICKENBACK AFB NOT AVBL
NEWARK         FAIR      76  69  79 SW10      29.97S
MARION         FAIR      75  68  78 SW12      29.92F
LANCASTER      FAIR      77  69  76 S9        29.98S
ZANESVILLE     FAIR      78  69  73 SW8       29.98F
NEW PHILLY     FAIR      77  71  82 S6        29.97F
$$



USA.gov is the U.S. government's official web portal to all federal, state and local government web resources and services.